GW3985 Weather Reports


time (UTC)temp
F
wind
direction
speed
knots
gust
knots
rain 1hr
in
rain 24hr
in
rain mn
in
humidity
%
barometer
mb
20260509071517 54 136 4.3 10.4 0.00 0.00 0.00 57 1018.0
20260509070514 54 137 4.3 10.4 0.00 0.00 0.00 57 1018.1
20260509065515 54 133 3.5 10.4 0.00 0.00 0.00 56 1018.3
20260509064515 55 132 3.5 7.8 0.00 0.00 0.00 56 1018.3
20260509063516 55 131 3.5 8.7 0.00 0.00 0.00 56 1018.3
20260509062516 55 138 4.3 9.6 0.00 0.00 0.00 56 1018.5
20260509061516 54 137 4.3 8.7 0.00 0.00 0.00 58 1018.5
20260509060517 54 138 3.5 8.7 0.00 0.00 0.00 59 1018.6
20260509055515 53 134 5.2 10.4 0.00 0.00 0.00 61 1018.7
20260509054516 53 139 1.7 6.1 0.00 0.00 0.00 63 1018.9
20260509053516 53 134 2.6 6.1 0.00 0.00 0.00 63 1019.1
20260509052516 53 138 2.6 7.8 0.00 0.00 0.00 62 1019.3
20260509051516 53 141 2.6 4.3 0.00 0.00 0.00 62 1019.4
20260509050517 53 137 1.7 6.1 0.00 0.00 0.00 62 1019.4
20260509045517 54 136 0.9 2.6 0.00 0.00 0.00 60 1019.5
20260509044515 53 136 1.7 2.6 0.00 0.00 0.00 60 1019.6
20260509043515 53 138 0.9 1.7 0.00 0.00 0.00 61 1019.9
20260509042515 54 138 0.0 1.7 0.00 0.00 0.00 61 1020.0
20260509041536 54 138 0.9 1.7 0.00 0.00 0.00 61 1019.9
20260509040516 54 139 0.0 1.7 0.00 0.00 0.00 59 1020.3
20260509035516 55 131 0.0 0.9 0.00 0.00 0.00 57 1020.0
20260509034517 56 131 0.0 1.7 0.00 0.00 0.00 57 1019.7
20260509033515 56 124 0.0 0.9 0.00 0.00 0.00 57 1019.6
20260509032515 56 125 0.0 0.9 0.00 0.00 0.00 56 1019.7
20260509031536 57 136 1.7 3.5 0.00 0.00 0.00 56 1019.5
20260509030516 57 131 0.9 2.6 0.00 0.00 0.00 55 1019.6
20260509025536 57 106 0.0 0.9 0.00 0.00 0.00 54 1019.5
20260509024517 57 131 0.0 0.9 0.00 0.00 0.00 54 1019.3
20260509023517 58 130 0.0 0.9 0.00 0.00 0.00 54 1019.1
20260509022515 59 117 0.9 1.7 0.00 0.00 0.00 52 1018.9
20260509021515 59 109 0.9 1.7 0.00 0.00 0.00 51 1018.8
20260509020516 60 112 0.0 0.9 0.00 0.00 0.00 51 1018.9
20260509015516 61 75 0.0 0.9 0.00 0.00 0.00 49 1018.8
20260509014516 61 96 0.0 0.9 0.00 0.00 0.00 48 1018.7
20260509013517 62 0.0 0.0 0.00 0.00 0.00 47 1018.9
20260509012514 62 99 0.0 0.9 0.00 0.00 0.00 46 1018.6
20260509011515 63 94 0.9 1.7 0.00 0.00 0.00 44 1018.7
20260509010515 65 118 0.0 1.7 0.00 0.00 0.00 43 1018.5
20260509005516 66 94 0.9 1.7 0.00 0.00 0.00 42 1018.5
20260509004516 66 146 0.0 0.9 0.00 0.00 0.00 41 1018.7
20260509003517 67 244 0.0 0.9 0.00 0.00 0.00 40 1018.5
20260509002517 69 250 0.0 1.7 0.00 0.00 0.00 38 1018.4
20260509001015 70 233 0.0 1.7 0.00 0.00 0.00 38 1018.4
20260509000015 71 101 0.9 2.6 0.00 0.00 0.00 37 1018.5
20260508235016 71 110 0.0 0.9 0.00 0.00 0.00 37 1018.5
20260508234016 72 278 0.0 0.9 0.00 0.00 0.00 35 1018.5
20260508233036 73 152 0.0 1.7 0.00 0.00 0.00 35 1018.5
20260508232017 71 299 0.0 2.6 0.00 0.00 0.00 37 1018.6
20260508231015 71 311 0.9 3.5 0.00 0.00 0.00 37 1018.5
20260508230015 72 101 0.9 1.7 0.00 0.00 0.00 36 1018.6
20260508225015 72 322 0.0 1.7 0.00 0.00 0.00 37 1018.7
20260508224016 72 345 0.9 2.6 0.00 0.00 0.00 37 1018.7
20260508223016 71 160 0.0 1.7 0.00 0.00 0.00 36 1018.6
20260508222016 71 267 0.9 2.6 0.00 0.00 0.00 37 1018.7
20260508221037 71 110 0.9 1.7 0.00 0.00 0.00 39 1018.7
20260508220015 70 87 0.9 5.2 0.00 0.00 0.00 39 1018.7
20260508215015 71 282 0.9 3.5 0.00 0.00 0.00 38 1018.9
20260508214016 71 111 0.9 3.5 0.00 0.00 0.00 38 1018.9
20260508213016 70 296 0.9 3.5 0.00 0.00 0.00 39 1019.1
20260508212016 70 166 0.9 2.6 0.00 0.00 0.00 39 1019.1
20260508211016 70 168 0.9 1.7 0.00 0.00 0.00 40 1019.1
20260508210017 68 89 0.9 3.5 0.00 0.00 0.00 41 1019.3
20260508205015 70 106 1.7 5.2 0.00 0.00 0.00 40 1019.5
20260508204015 71 244 0.9 2.6 0.00 0.00 0.00 38 1019.5
20260508203035 70 319 0.9 1.7 0.00 0.00 0.00 40 1019.6
20260508202016 69 308 0.9 1.7 0.00 0.00 0.00 39 1019.7
20260508201017 69 57 0.9 2.6 0.00 0.00 0.00 42 1019.8
20260508200016 70 245 0.0 1.7 0.00 0.00 0.00 41 1019.8
20260508195017 70 282 0.9 1.7 0.00 0.00 0.00 39 1019.9
20260508194015 70 310 0.0 1.7 0.00 0.00 0.00 40 1020.1
20260508193016 67 175 0.0 1.7 0.00 0.00 0.00 43 1020.2
20260508192016 67 250 0.9 2.6 0.00 0.00 0.00 42 1020.2
20260508191036 67 332 0.9 3.5 0.00 0.00 0.00 43 1020.3
20260508190017 67 256 0.9 2.6 0.00 0.00 0.00 42 1020.3
20260508185017 67 256 0.9 2.6 0.00 0.00 0.00 44 1020.4
20260508184055 66 279 0.9 1.7 0.00 0.00 0.00 45 1020.5
20260508183015 65 172 0.0 0.9 0.00 0.00 0.00 44 1020.6
20260508182015 66 113 0.9 1.7 0.00 0.00 0.00 44 1020.6
20260508181016 65 323 0.0 2.6 0.00 0.00 0.00 45 1020.7
20260508180016 64 272 0.9 2.6 0.00 0.00 0.00 45 1020.8
20260508175057 64 17 0.0 0.9 0.00 0.00 0.00 46 1020.8
20260508174037 63 256 0.9 3.5 0.00 0.00 0.00 47 1020.9
20260508173015 62 242 0.0 1.7 0.00 0.00 0.00 46 1020.8
20260508172015 62 50 0.0 1.7 0.00 0.00 0.00 47 1020.9
20260508171035 61 292 0.0 1.7 0.00 0.01 0.00 47 1021.0
20260508170016 60 332 0.0 1.7 0.00 0.01 0.00 49 1021.2
20260508165016 60 21 0.0 1.7 0.00 0.01 0.00 50 1021.2
20260508164016 59 319 0.0 0.9 0.00 0.02 0.00 51 1021.2
20260508163017 58 331 0.0 1.7 0.00 0.02 0.00 52 1021.3
20260508162015 57 286 0.0 0.9 0.00 0.02 0.00 55 1021.4
20260508161015 57 139 0.0 1.7 0.00 0.02 0.00 56 1021.5
20260508160016 56 253 0.0 0.9 0.00 0.03 0.00 60 1021.5
20260508155016 55 227 0.0 2.6 0.00 0.04 0.00 61 1021.5
20260508154036 53 154 0.0 2.6 0.00 0.04 0.00 66 1021.6
20260508153016 52 257 0.0 1.7 0.00 0.06 0.00 67 1021.6
20260508152017 52 250 0.9 1.7 0.00 0.06 0.00 71 1021.7
20260508151015 51 247 0.0 1.7 0.00 0.06 0.00 73 1021.8
20260508150035 50 244 0.0 1.7 0.00 0.06 0.00 75 1021.9
20260508145015 49 80 0.0 0.9 0.00 0.06 0.00 78 1021.9
20260508144036 48 99 0.0 0.9 0.00 0.06 0.00 80 1022.1
20260508143017 47 144 0.9 2.6 0.00 0.06 0.00 81 1022.0
20260508142017 47 232 0.0 1.7 0.00 0.06 0.00 82 1022.2
20260508141017 46 222 0.0 0.9 0.00 0.06 0.00 82 1022.2
20260508140015 46 257 0.0 1.7 0.00 0.06 0.00 83 1022.3
20260508135015 45 261 0.0 0.9 0.00 0.06 0.00 85 1022.4
20260508134016 44 251 0.0 0.9 0.00 0.06 0.00 88 1022.4
20260508133016 43 277 0.0 0.9 0.00 0.06 0.00 90 1022.3
20260508132016 42 0.0 0.0 0.00 0.06 0.00 91 1022.1
20260508131017 41 0.0 0.0 0.00 0.06 0.00 91 1022.1
20260508130015 40 0.0 0.0 0.00 0.06 0.00 91 1022.1
20260508125035 39 0.0 0.0 0.00 0.06 0.00 91 1021.9
20260508124015 39 0.0 0.0 0.00 0.06 0.00 91 1021.7
20260508123016 39 0.0 0.0 0.00 0.06 0.00 90 1021.1
20260508122016 39 0.0 0.0 0.00 0.06 0.00 90 1020.9
20260508121016 39 0.0 0.0 0.00 0.06 0.00 89 1020.8
20260508120017 39 0.0 0.0 0.00 0.06 0.00 89 1020.4
20260508115015 39 0.0 0.0 0.00 0.06 0.00 89 1020.3
20260508114015 39 0.0 0.0 0.00 0.06 0.00 88 1020.2
20260508113015 39 0.0 0.0 0.00 0.06 0.00 88 1020.2
20260508112016 40 0.0 0.0 0.00 0.06 0.00 87 1020.2
20260508111016 40 0.0 0.0 0.00 0.06 0.00 87 1020.3
20260508110016 40 352 0.0 0.9 0.00 0.06 0.00 86 1020.4
20260508105017 40 134 0.0 2.6 0.00 0.06 0.00 86 1019.4
20260508104035 40 139 0.9 3.5 0.00 0.06 0.00 86 1019.2
20260508103015 40 126 1.7 2.6 0.00 0.06 0.00 86 1019.3
20260508102035 41 131 0.9 1.7 0.00 0.06 0.00 86 1019.3
20260508101016 41 144 0.0 0.9 0.00 0.06 0.00 85 1019.4
20260508100016 41 0.0 0.0 0.00 0.06 0.00 85 1019.4
20260508095016 42 0.0 0.0 0.00 0.06 0.00 85 1019.2
20260508094017 42 0.0 0.0 0.00 0.06 0.00 84 1019.3
20260508093055 43 0.0 0.0 0.00 0.06 0.00 83 1019.5
20260508092015 43 144 0.0 0.9 0.00 0.06 0.00 83 1019.6
20260508091036 43 144 0.0 0.9 0.00 0.06 0.00 84 1019.5
20260508090016 43 144 0.0 0.9 0.00 0.06 0.00 83 1019.5
20260508085016 44 0.0 0.0 0.00 0.06 0.00 82 1019.6
20260508084017 44 144 0.0 0.9 0.00 0.06 0.00 82 1019.7
20260508083017 44 0.0 0.0 0.00 0.06 0.00 81 1019.9
20260508082015 45 0.0 0.0 0.00 0.06 0.00 79 1019.9
20260508081015 46 0.0 0.0 0.00 0.06 0.00 78 1020.0
20260508080016 46 144 0.0 0.9 0.00 0.06 0.00 77 1019.8
20260508075016 46 138 0.9 1.7 0.00 0.06 0.00 78 1019.9
20260508074016 47 109 0.0 0.9 0.00 0.06 0.00 77 1020.2
20260508073016 47 0.0 0.0 0.00 0.06 0.00 76 1020.3